Regional Weather Roundup
Issued by NWS Wilmington, NC

Home | Current Version | Previous Version | Text Only | Print | Product List | Glossary On
Versions: 1 2 3 4 5 6 7 8 9 10 11 12 13 14 15 16 17 18 19 20 21 22 23 24 25 26 27 28 29 30 31 32 33 34 35 36 37 38 39 40 41 42 43 44 45 46 47 48 49 50
000
ASUS42 KILM 061710
RWRILM
RWRILM
REGIONAL HOURLY WEATHER ROUNDUP
NATIONAL WEATHER SERVICE WILMINGTON NC
1200 PM EST FRI MAR 06 2015

NOTE: "FAIR" INDICATES FEW OR NO CLOUDS BELOW 12,000 FEET WITH NO
SIGNIFICANT WEATHER AND/OR OBSTRUCTIONS TO VISIBILITY.

...............WFO WILMINGTON COUNTY WARNING AREA...............

......COASTAL NC AND SC COUNTIES......

CITY           SKY/WX    TMP DP  RH WIND       PRES   REMARKS
WILMINGTON     CLOUDY    37  23  56 N14G20    30.45F WCI  28
SOUTHPORT      CLOUDY    38  23  56 N10G17    30.44S WCI  30
N MYRTLE BEACH CLOUDY    38  20  48 N8G20     30.44S WCI  32
MYRTLE BEACH   CLOUDY    39  19  45 N17       30.46S WCI  30

......INLAND NC AND SC COUNTIES.......

CITY           SKY/WX    TMP DP  RH WIND       PRES   REMARKS
LUMBERTON      SUNNY     38  17  42 NE14      30.47F WCI  30
ELIZABETHTOWN  SUNNY     37  14  39 N6        30.47F WCI  32
WHITEVILLE     CLOUDY    38  15  39 N7        30.45F WCI  32
FLORENCE       SUNNY     40  19  43 NE13G22   30.47S WCI  32
DARLINGTON     SUNNY     39  23  52 NE9       30.48F WCI  33

....................REST OF NORTH CAROLINA......................

.........EASTERN NC.........

CITY           SKY/WX    TMP DP  RH WIND       PRES   REMARKS
CAPE HATTERAS  CLOUDY    32  25  75 N15G29    30.42F WCI  22
JACKSONVILLE   SUNNY     36  19  51 N8G20     30.48S WCI  29
MOREHEAD CITY  CLOUDY    34  23  64 N18G28    30.44F WCI  23
KENANSVILLE    SUNNY     33  19  57 N12G18    30.49F WCI  24
NEW BERN       SUNNY     36  21  54 N13G20    30.48F WCI  27
ELIZABETH CITY SUNNY     30  17  58 NE15      30.52S WCI  19

.........CENTRAL NC.........

CITY           SKY/WX    TMP DP  RH WIND       PRES   REMARKS
RALEIGH DURHAM MOSUNNY   30   9  41 N7G16     30.51F WCI  23
ROCKY MOUNT    SUNNY     31  14  49 N9        30.53S WCI  23
ROANOKE RAPIDS NOT AVBL
FAYETTEVILLE   SUNNY     36  10  34 N15       30.48F WCI  27
HOFFMAN        SUNNY     36  19  50 N10G17    30.51F WCI  28

.........WESTERN NC.........

CITY           SKY/WX    TMP DP  RH WIND       PRES   REMARKS
CHARLOTTE      SUNNY     35  16  45 N7        30.47F WCI  29
GREENSBORO     MOSUNNY   28  18  66 E6        30.47F WCI  22
HICKORY        NOT AVBL
BOONE          NOT AVBL
ASHEVILLE      NOT AVBL

.....................REST OF SOUTH CAROLINA.....................

.........EASTERN SC.........

CITY           SKY/WX    TMP DP  RH WIND       PRES   REMARKS
CHARLESTON     CLOUDY    42  30  62 NE14      30.42S
BEAUFORT MCAS  CLOUDY    42  34  73 NE13      30.41F
HILTON HEAD    CLOUDY    43  34  70 N13G20    30.42S

.........CENTRAL SC.........

CITY           SKY/WX    TMP DP  RH WIND       PRES   REMARKS
COLUMBIA       MOSUNNY   40  26  57 NE7       30.46S
ORANGEBURG     CLOUDY    42  27  55 NE10      30.44S
SUMTER SHAW    MOSUNNY   40  26  56 N12       30.44F WCI  33

.........WESTERN SC.........

CITY           SKY/WX    TMP DP  RH WIND       PRES   REMARKS
GREENVILLE     NOT AVBL
ROCK HILL      SUNNY     36  17  46 NE6       30.47F WCI  31
ANDERSON       SUNNY     42  15  33 VRB5      30.44F
CLEMSON        NOT AVBL
GREENWOOD      CLOUDY    39  20  46 VRB3      30.46F


...................COASTAL AND OFFSHORE REPORTS..................

................LOCAL PIERS AND NC RESERVE................


STATION/POSITION TIME  SKY/WX   TEMP    WIND        PRES    VSBY
                                AIR SEA DIR/SP/G
                 (UTC)          (F)     (DEG/KT/KT) (MB)    (MI)
JOHNY MRCER PIER 1700                    20/ 13/ 18 1030.3S
NC RESRV MASNBRO 1600            36      10/  5     1030.0S
OCEAN CREST PIER 1700            37 46  340/  8/ 12 1029.9F
SPRINGMAID  PIER 1700            36 47  350/ 11/ 14 1031.0S


................COASTAL AND OFFSHORE BUOYS................


STATION/POSITION TIME  SKY/WX   TEMP    WIND        PRES    VSBY
                                AIR SEA DIR/SP/G
                 (UTC)          (F)     (DEG/KT/KT) (MB)    (MI)
DIMNDSHOAL 41025 NOT AVBL
CAPE LOOKOUT     1700                    10/ 21/ 26 1030.2F
ONSLOW BAY 41036 NOT AVBL
5 WRITEBCH 41038 NOT AVBL
MASONBORO  41110 1700               47                N/A
WVE H/P(F/S)=  5/ 6 WND WVE H/P(F/S)=  5/ 6 SWL H/P/D(F/S/D)=  2/100/12

WILM HARBR 41108 1700               48                N/A
WVE H/P(F/S)=  4/ 5 WND WVE H/P(F/S)=  3/ 5 SWL H/P/D(F/S/D)=  2/160/11

27WRITEBCH 41037 NOT AVBL
FRYING PAN 41013 1700            40 60   30/ 23/ 27 1029.4S
WVE H/P(F/S)=  9/ 7 WND WVE H/P(F/S)=  8/ 7 SWL H/P/D(F/S/D)=  3/ 80/ 9

SUNST NRSH 41024 1600            36      10/ 16/ 17   N/A
CAPRS NRSH 41029 1600            39      40/ 19/ 25   N/A
EDISTO     41004 1700            45 66   20/ 25/ 33 1027.3S
WVE H/P(F/S)= 10/ 8 WND WVE H/P(F/S)= 10/ 8 SWL H/P/D(F/S/D)=  5/16



..........OFFSHORE BUOYS BEYOND 100 NM OFFSHORE...........
.....IN A TRIANGLE---HAT TO BERMUDA TO BAHAMAS TO HAT.....


STATION/POSITION TIME  SKY/WX   TEMP    WIND        PRES    VSBY
                                AIR SEA DIR/SP/G
                 (UTC)          (F)     (DEG/KT/KT) (MB)    (MI)
150E HAT   41001 NOT AVBL
W BERMUDA  41048 1644            70 69  200/ 16/ 19 1020.2F
WVE H/P(F/S)=  6/ 8 WND WVE H/P(F/S)=  7/ 8

ATLANTIC S 41049 1625            74 75  160/  6/  6 1024.3F
WVE H/P(F/S)=  4/10 WND WVE H/P(F/S)=  2/ 4 SWL H/P/D(F/S/D)=  3/ 50/10

E BAHAMAS  41046 1624            76 77  110/ 12/ 14 1023.1F
WVE H/P(F/S)=  6/10 WND WVE H/P(F/S)=  2/ 5 SWL H/P/D(F/S/D)=  5/ 80/10

NE BAHAMAS 41047 1633            74 74  190/  8/  8 1023.8F
WVE H/P(F/S)=  4/10 WND WVE H/P(F/S)=  2/ 4 SWL H/P/D(F/S/D)=  3/110/10

120E CANVRL41010 1700            73 75   10/ 10/ 12 1022.4F
WVE H/P(F/S)=  4/10 WND WVE H/P(F/S)=  2/ 5 SWL H/P/D(F/S/D)=  3/110/10


END


USA.gov is the U.S. government's official web portal to all federal, state and local government web resources and services.